Regional Weather Roundup
Issued by NWS

Home | Current Version | Previous Version | Text Only | Print | Product List | Glossary Off
Versions: 1 2 3 4 5 6 7 8 9 10 11 12 13 14 15 16 17 18 19 20 21 22 23 24 25 26 27 28 29 30 31 32 33 34 35 36 37 38 39 40 41 42 43 44 45 46 47 48 49 50

000
ASUS43 KOAX 251702
RWRNE

WEATHER ROUNDUP FOR NEBRASKA
NATIONAL WEATHER SERVICE OMAHA NE
1200 PM CDT WED MAY 25 2016

NOTES: SATELLITE DATA IS BEING USED TO AUGMENT CLOUD COVER ABOVE
       12000 FEET.
       "FAIR" INDICATES FEW OR NO CLOUDS BELOW 12,000 FEET WITH NO
       SIGNIFICANT WEATHER AND/OR OBSTRUCTIONS TO VISIBILITY.

  * THESE STATIONS DO NOT REPORT WEATHER SUCH AS RAIN...SNOW OR FOG.

NEZ001>004-019>022-054>056-251800-
NEBRASKA PANHANDLE

CITY           SKY/WX    TMP DP  RH WIND       PRES   REMARKS
SCOTTSBLUFF    SUNNY     68  42  38 W9        29.94S
ALLIANCE       SUNNY     69  44  40 W18       29.92R
CHADRON        SUNNY     68  47  46 W15       29.90R
SIDNEY         SUNNY     68  53  58 S14       29.97S
$$

NEZ057>060-069>072-079>082-251800-
SOUTHWEST NEBRASKA

CITY           SKY/WX    TMP DP  RH WIND       PRES   REMARKS
NORTH PLATTE   SUNNY     72  54  53 SW5       29.90F
IMPERIAL       MOSUNNY   68  55  63 S5        29.94R
LEXINGTON      SUNNY     72  58  62 SE8       29.89S
MCCOOK         SUNNY     74  57  55 VRB3      29.89S
$$

NEZ005>010-023>029-035>040-094-251800-
NORTH CENTRAL NEBRASKA

CITY           SKY/WX    TMP DP  RH WIND       PRES   REMARKS
VALENTINE      SUNNY     69  55  60 W16       29.85S
AINSWORTH      SUNNY     71  57  61 W13       29.85S
BROKEN BOW     SUNNY     71  59  65 S10       29.89R
ORD            SUNNY     73  60  63 SW12      29.86R
$$

NEZ041-046>049-061>064-073>077-083>087-251800-
SOUTH CENTRAL NEBRASKA

CITY           SKY/WX    TMP DP  RH WIND       PRES   REMARKS
GRAND ISLAND   SUNNY     74  60  61 S10       29.86R
AURORA         SUNNY     74  59  59 S15G21    29.85R
HASTINGS       SUNNY     72  59  63 SE15      29.85F
KEARNEY *      SUNNY     72  59  64 S13       29.88S
YORK           SUNNY     73  61  64 S18G25    29.84F
$$

NEZ011>018-030>034-042>045-251800-
NORTHEAST NEBRASKA

CITY           SKY/WX    TMP DP  RH WIND       PRES   REMARKS
NORFOLK        MOSUNNY   73  61  65 SW10      29.83F
ALBION         SUNNY     73  61  66 S12       29.85R
BLAIR          CLOUDY    72  62  72 S7        29.84S
FREMONT        MOSUNNY   72  61  67 S10       29.85R
TEKAMAH        PTSUNNY   73  61  65 S14       29.84R
$$

NEZ050>053-065>068-078-088>093-251800-
SOUTHEAST NEBRASKA

CITY           SKY/WX    TMP DP  RH WIND       PRES   REMARKS
LINCOLN        SUNNY     73  61  65 S10G16    29.85F
OMAHA EPPLEY   CLOUDY    71  61  70 S13       29.83F
BEATRICE       SUNNY     73  62  70 S15       29.85F
FALLS CITY     CLOUDY    71  64  78 E10       29.87F
NEBRASKA CITY  CLOUDY    70  62  77 SW15G21   29.86R
PLATTSMOUTH    PTSUNNY   70  63  77 W5        29.85F
$$

NEZ044-045-051>053-067-251800-
OMAHA AREA

CITY           SKY/WX    TMP DP  RH WIND       PRES   REMARKS
OMAHA EPPLEY   CLOUDY    71  61  70 S13       29.83F
BLAIR          CLOUDY    72  62  72 S7        29.84S
FREMONT        MOSUNNY   72  61  67 S10       29.85R
OFFUTT AFB     CLOUDY    69  62  78 S7        29.83F
PLATTSMOUTH    PTSUNNY   70  63  77 W5        29.85F
WAHOO          FAIR      73  61  64 S14       29.83F
$$




USA.gov is the U.S. government's official web portal to all federal, state and local government web resources and services.